EWG99F EBCI-EDLW

Flight info

Callsign EWG99F
Flight time 0h 40m
Altitude 23000
Route LNO M170 KENUM N853 DOMEG DOMEG2A
Aircraft A20N/M-SDE2E3FGHIRWXY/LB1

Departure

Time 2026-05-01 14:05
Airport Brussels South Charleroi Airport (EBCI)

Arrival

Time 2026-05-01 14:45
Airport Dortmund Airport (EDLW)
Time Latitude Longitude Altitude Speed Heading
2026-05-01 13:41 50.46839 4.46985 612 ft 0 kts 335°
2026-05-01 13:56 50.46835 4.46988 612 ft 2 kts 335°
2026-05-01 13:56 50.46825 4.46995 622 ft 2 kts 335°
2026-05-01 13:56 50.46814 4.47003 616 ft 2 kts 335°
2026-05-01 13:57 50.46804 4.47011 627 ft 2 kts 349°
2026-05-01 13:57 50.46792 4.47011 627 ft 2 kts 21°
2026-05-01 13:57 50.46783 4.47004 627 ft 0 kts 63°
2026-05-01 14:00 50.46789 4.47027 618 ft 4 kts 66°
2026-05-01 14:00 50.46807 4.47087 615 ft 8 kts 66°
2026-05-01 14:00 50.46833 4.47182 623 ft 11 kts 66°
2026-05-01 14:00 50.46851 4.47243 621 ft 7 kts 66°
2026-05-01 14:01 50.46864 4.47288 624 ft 9 kts 66°
2026-05-01 14:01 50.46877 4.47336 620 ft 11 kts 66°
2026-05-01 14:01 50.46888 4.47373 625 ft 9 kts 66°
2026-05-01 14:01 50.46915 4.47463 623 ft 10 kts 65°
2026-05-01 14:02 50.46934 4.47577 615 ft 10 kts 114°
2026-05-01 14:02 50.46873 4.47647 619 ft 12 kts 154°
2026-05-01 14:02 50.46787 4.47705 621 ft 14 kts 156°
2026-05-01 14:02 50.46690 4.47702 619 ft 16 kts 224°
2026-05-01 14:03 50.46639 4.47535 621 ft 18 kts 245°
2026-05-01 14:03 50.46584 4.47351 622 ft 20 kts 244°
2026-05-01 14:03 50.46524 4.47143 614 ft 22 kts 245°
2026-05-01 14:03 50.46461 4.46924 623 ft 9 kts 245°
2026-05-01 14:04 50.46460 4.46921 622 ft 0 kts 245°
2026-05-01 14:04 50.46460 4.46920 622 ft 1 kts 245°
2026-05-01 14:04 50.46362 4.46590 619 ft 79 kts 245°
2026-05-01 14:04 50.46159 4.45891 623 ft 131 kts 245°
2026-05-01 14:05 50.45526 4.43645 852 ft 196 kts 245°
2026-05-01 14:05 50.45053 4.41800 1309 ft 226 kts 248°
2026-05-01 14:05 50.44862 4.41013 1465 ft 238 kts 248°
2026-05-01 14:05 50.44273 4.38431 2044 ft 261 kts 249°
2026-05-01 14:06 50.43693 4.35639 2721 ft 284 kts 251°
2026-05-01 14:06 50.43115 4.32562 3480 ft 303 kts 250°
2026-05-01 14:06 50.42025 4.29720 4428 ft 308 kts 225°
2026-05-01 14:06 50.40757 4.28274 5208 ft 313 kts 206°
2026-05-01 14:07 50.38638 4.27552 6262 ft 317 kts 179°
2026-05-01 14:07 50.36516 4.28444 7310 ft 320 kts 152°
2026-05-01 14:07 50.34871 4.30779 8410 ft 323 kts 125°
2026-05-01 14:08 50.34294 4.37587 10705 ft 329 kts 78°
2026-05-01 14:08 50.34937 4.40969 11817 ft 327 kts 75°
2026-05-01 14:08 50.35690 4.44365 12877 ft 328 kts 72°
2026-05-01 14:08 50.36521 4.47740 13635 ft 338 kts 72°
2026-05-01 14:09 50.37376 4.51182 14273 ft 349 kts 72°
2026-05-01 14:09 50.38265 4.54780 14861 ft 359 kts 72°
2026-05-01 14:09 50.39175 4.58487 15472 ft 368 kts 72°
2026-05-01 14:09 50.40102 4.62279 16088 ft 376 kts 72°
2026-05-01 14:10 50.41042 4.66148 16725 ft 384 kts 72°
2026-05-01 14:10 50.41994 4.70098 17375 ft 390 kts 72°
2026-05-01 14:10 50.42306 4.71398 17578 ft 392 kts 72°
2026-05-01 14:10 50.43319 4.75639 18269 ft 398 kts 72°
2026-05-01 14:11 50.44292 4.79728 18894 ft 403 kts 72°
2026-05-01 14:11 50.46237 4.88001 20083 ft 411 kts 72°
2026-05-01 14:11 50.47225 4.92245 20700 ft 414 kts 72°
2026-05-01 14:12 50.48206 4.96507 21326 ft 417 kts 72°
2026-05-01 14:12 50.49190 5.00818 21974 ft 420 kts 72°
2026-05-01 14:12 50.50172 5.05158 22620 ft 422 kts 72°
2026-05-01 14:12 50.51159 5.09554 22940 ft 433 kts 72°
2026-05-01 14:13 50.52173 5.14092 23000 ft 448 kts 72°
2026-05-01 14:13 50.52863 5.17190 23003 ft 458 kts 72°
2026-05-01 14:13 50.54183 5.23692 23002 ft 476 kts 73°
2026-05-01 14:13 50.55135 5.28706 23000 ft 470 kts 75°
2026-05-01 14:14 50.56023 5.33534 23000 ft 451 kts 75°
2026-05-01 14:14 50.56880 5.38197 23000 ft 436 kts 75°
2026-05-01 14:14 50.57714 5.42734 23000 ft 429 kts 75°
2026-05-01 14:14 50.58536 5.47206 23003 ft 422 kts 75°
2026-05-01 14:15 50.59344 5.51609 22999 ft 416 kts 75°
2026-05-01 14:15 50.60136 5.55924 22998 ft 411 kts 75°
2026-05-01 14:15 50.60920 5.60194 22999 ft 406 kts 75°
2026-05-01 14:15 50.61698 5.64439 22995 ft 401 kts 75°
2026-05-01 14:16 50.62467 5.68641 22995 ft 397 kts 75°
2026-05-01 14:16 50.63229 5.72800 22999 ft 393 kts 75°
2026-05-01 14:16 50.63985 5.76925 23002 ft 390 kts 75°
2026-05-01 14:16 50.64732 5.81022 23006 ft 387 kts 75°
2026-05-01 14:17 50.65472 5.85084 23001 ft 384 kts 75°
2026-05-01 14:17 50.66205 5.89110 23000 ft 381 kts 75°
2026-05-01 14:17 50.66933 5.93109 22998 ft 378 kts 75°
2026-05-01 14:17 50.67657 5.97089 23000 ft 376 kts 75°
2026-05-01 14:18 50.68259 6.00407 22999 ft 374 kts 75°
2026-05-01 14:18 50.68973 6.04346 23000 ft 372 kts 75°
2026-05-01 14:18 50.69667 6.08203 22999 ft 370 kts 75°
2026-05-01 14:18 50.70140 6.10835 23003 ft 369 kts 75°
2026-05-01 14:19 50.71066 6.16024 23007 ft 366 kts 75°
2026-05-01 14:19 50.71743 6.19832 23005 ft 364 kts 75°
2026-05-01 14:19 50.72425 6.23672 23007 ft 363 kts 75°
2026-05-01 14:19 50.73107 6.27504 23006 ft 361 kts 75°
2026-05-01 14:20 50.74100 6.31131 23007 ft 361 kts 57°
2026-05-01 14:20 50.77639 6.36740 23014 ft 361 kts 39°
2026-05-01 14:20 50.79626 6.39146 23012 ft 360 kts 39°
2026-05-01 14:21 50.81606 6.41564 23016 ft 359 kts 39°
2026-05-01 14:21 50.83586 6.43980 23013 ft 359 kts 39°
2026-05-01 14:21 50.85518 6.46464 23013 ft 357 kts 42°
2026-05-01 14:22 50.89288 6.51588 23015 ft 356 kts 42°
2026-05-01 14:22 50.89897 6.52418 23012 ft 356 kts 43°
2026-05-01 14:22 50.91993 6.55273 23017 ft 355 kts 42°
2026-05-01 14:22 50.93862 6.57825 23018 ft 355 kts 42°
2026-05-01 14:23 50.95708 6.60350 23018 ft 354 kts 42°
2026-05-01 14:23 50.97569 6.62901 23018 ft 354 kts 42°
2026-05-01 14:23 50.98819 6.64614 22962 ft 347 kts 42°
2026-05-01 14:23 51.00759 6.67276 22531 ft 342 kts 44°
2026-05-01 14:24 51.02341 6.70076 22010 ft 340 kts 54°
2026-05-01 14:24 51.03722 6.73125 21496 ft 339 kts 57°
2026-05-01 14:24 51.05056 6.76228 20987 ft 339 kts 58°
2026-05-01 14:24 51.06393 6.79326 20506 ft 339 kts 57°
2026-05-01 14:25 51.07737 6.82410 19999 ft 340 kts 57°
2026-05-01 14:25 51.09176 6.85399 19519 ft 340 kts 53°
2026-05-01 14:25 51.10179 6.87322 19204 ft 341 kts 52°
2026-05-01 14:25 51.11700 6.90222 18731 ft 341 kts 52°
2026-05-01 14:26 51.13219 6.93116 18224 ft 341 kts 52°
2026-05-01 14:26 51.16258 6.98890 17168 ft 340 kts 52°
2026-05-01 14:26 51.17772 7.01771 16667 ft 339 kts 52°
2026-05-01 14:27 51.19290 7.04657 16158 ft 338 kts 52°
2026-05-01 14:27 51.20805 7.07532 15666 ft 338 kts 52°
2026-05-01 14:27 51.22320 7.10400 15181 ft 337 kts 52°
2026-05-01 14:28 51.25330 7.16097 14230 ft 335 kts 52°
2026-05-01 14:28 51.26833 7.18939 13732 ft 335 kts 52°
2026-05-01 14:28 51.28318 7.21746 13215 ft 334 kts 52°
2026-05-01 14:28 51.29837 7.24619 12684 ft 333 kts 52°
2026-05-01 14:29 51.31280 7.27442 12180 ft 331 kts 59°
2026-05-01 14:29 51.31971 7.29636 11845 ft 325 kts 75°
2026-05-01 14:30 51.32303 7.39937 10437 ft 315 kts 92°
2026-05-01 14:30 51.32308 7.42387 10102 ft 314 kts 92°
2026-05-01 14:30 51.32317 7.45877 9572 ft 313 kts 92°
2026-05-01 14:31 51.32336 7.52830 8550 ft 312 kts 93°
2026-05-01 14:31 51.32350 7.56306 8062 ft 313 kts 92°
2026-05-01 14:31 51.32357 7.59790 7568 ft 313 kts 93°
2026-05-01 14:31 51.32413 7.63271 7076 ft 314 kts 85°
2026-05-01 14:32 51.33121 7.66580 6588 ft 319 kts 61°
2026-05-01 14:32 51.34616 7.69190 6163 ft 321 kts 37°
2026-05-01 14:32 51.36623 7.70581 6003 ft 311 kts 11°
2026-05-01 14:32 51.38723 7.70525 5970 ft 296 kts 345°
2026-05-01 14:33 51.39914 7.69766 5970 ft 285 kts 328°
2026-05-01 14:33 51.41320 7.67716 5782 ft 274 kts 301°
2026-05-01 14:33 51.42006 7.64935 5354 ft 269 kts 273°
2026-05-01 14:33 51.41860 7.62020 4868 ft 267 kts 253°
2026-05-01 14:34 51.41435 7.59108 4349 ft 272 kts 253°
2026-05-01 14:34 51.40973 7.56121 3861 ft 277 kts 252°
2026-05-01 14:34 51.40503 7.53096 3373 ft 282 kts 253°
2026-05-01 14:34 51.40022 7.50015 2880 ft 288 kts 252°
2026-05-01 14:35 51.39542 7.46882 2566 ft 287 kts 255°
2026-05-01 14:35 51.39558 7.43748 2472 ft 280 kts 282°
2026-05-01 14:35 51.40418 7.41002 2454 ft 277 kts 310°
2026-05-01 14:35 51.41931 7.39192 2473 ft 270 kts 338°
2026-05-01 14:36 51.43738 7.38718 2477 ft 261 kts
2026-05-01 14:36 51.45408 7.39628 2496 ft 253 kts 32°
2026-05-01 14:36 51.45908 7.40073 2444 ft 253 kts 33°
2026-05-01 14:37 51.47102 7.41156 2477 ft 253 kts 32°
2026-05-01 14:37 51.48632 7.42584 2463 ft 255 kts 33°
2026-05-01 14:37 51.50167 7.43993 2471 ft 253 kts 29°
2026-05-01 14:37 51.51859 7.44625 2480 ft 251 kts 359°
2026-05-01 14:38 51.53522 7.43862 2490 ft 253 kts 328°
2026-05-01 14:38 51.54732 7.41918 2475 ft 250 kts 297°
2026-05-01 14:38 51.55199 7.39285 2481 ft 245 kts 267°
2026-05-01 14:38 51.54779 7.36698 2473 ft 240 kts 234°
2026-05-01 14:39 51.53595 7.34872 2473 ft 235 kts 203°
2026-05-01 14:39 51.52028 7.34366 2488 ft 233 kts 172°
2026-05-01 14:39 51.50437 7.34997 2479 ft 238 kts 163°
2026-05-01 14:39 51.48846 7.35750 2497 ft 239 kts 163°
2026-05-01 14:40 51.47220 7.36515 2469 ft 244 kts 162°
2026-05-01 14:40 51.45589 7.37272 2480 ft 246 kts 162°
2026-05-01 14:40 51.44000 7.38266 2461 ft 245 kts 145°
2026-05-01 14:40 51.42914 7.40313 2480 ft 243 kts 115°
2026-05-01 14:41 51.42685 7.41436 2487 ft 242 kts 102°
2026-05-01 14:41 51.42618 7.42420 2470 ft 239 kts 94°
2026-05-01 14:41 51.42630 7.44956 2514 ft 211 kts 90°
2026-05-01 14:41 51.43012 7.47020 2592 ft 183 kts 57°
2026-05-01 14:42 51.43999 7.48194 2527 ft 180 kts 30°
2026-05-01 14:42 51.45182 7.49018 2119 ft 193 kts 24°
2026-05-01 14:42 51.45667 7.49322 1997 ft 195 kts 25°
2026-05-01 14:42 51.46001 7.49540 1920 ft 195 kts 26°
2026-05-01 14:43 51.46299 7.49751 1871 ft 193 kts 30°
2026-05-01 14:43 51.47383 7.50906 1615 ft 184 kts 40°
2026-05-01 14:43 51.48339 7.52130 1378 ft 170 kts 45°
2026-05-01 14:43 51.49080 7.53480 1303 ft 152 kts 58°
2026-05-01 14:44 51.49327 7.54033 1292 ft 153 kts 60°
2026-05-01 14:44 51.50007 7.55893 1072 ft 164 kts 66°
2026-05-01 14:44 51.50548 7.57544 831 ft 169 kts 66°
2026-05-01 14:45 51.51036 7.58897 632 ft 156 kts 66°
2026-05-01 14:45 51.51690 7.60803 412 ft 139 kts 65°
2026-05-01 14:45 51.51944 7.61552 409 ft 19 kts 53°
2026-05-01 14:46 51.52022 7.61761 410 ft 23 kts 61°
2026-05-01 14:46 51.52151 7.62127 410 ft 23 kts 60°
2026-05-01 14:46 51.52155 7.62136 410 ft 23 kts 60°
2026-05-01 14:47 51.52193 7.62256 412 ft 1 kts 77°
2026-05-01 14:47 51.52194 7.62281 415 ft 4 kts 92°
2026-05-01 14:47 51.52175 7.62322 413 ft 6 kts 144°
2026-05-01 14:48 51.52134 7.62360 415 ft 9 kts 150°
2026-05-01 14:48 51.52061 7.62387 415 ft 13 kts 207°
2026-05-01 14:48 51.51956 7.62120 413 ft 14 kts 239°
2026-05-01 14:49 51.51841 7.61788 413 ft 19 kts 240°
2026-05-01 14:49 51.51717 7.61450 421 ft 16 kts 236°
2026-05-01 14:50 51.51704 7.61420 432 ft 6 kts 234°
2026-05-01 14:50 51.51644 7.61387 425 ft 1 kts 147°
2026-05-01 14:51 51.51640 7.61390 424 ft 0 kts 150°